Location: Unspecified
(0.0000°N, 0.0000°E)
Time: 12:47:53
(UTC+00:00)

Transit 2A - Pass Details

Date: 03 June 2019
Orbit: 593 x 966 km, 66.7° (Epoch: 16 June)

Event Time Altitude Azimuth Distance (km) Brightness Sun altitude
Rises 02:24:27 0° 174° (S) 3,295 - -48.0°
Reaches altitude 10° 02:27:16 10° 160° (SSE) 2,430 - -47.4°
Maximum altitude 02:31:41 23° 108° (ESE) 1,760 - -46.5°
Exits shadow 02:34:57 15° 68° (ENE) 2,225 8.8 -45.8°
Drops below altitude 10° 02:36:21 10° 58° (ENE) 2,599 9.3 -45.5°
Sets 02:39:27 0° 44° (NE) 3,583 10.2 -44.9°
